Date String (YYYY-MM-DD hh:mm:ss) UTC,Instrument flags,Ambient pressure (hPa),Sample flow (lpm),Bypass flow (lpm),Sample temperature (°C),Ambient temperature (°C),ASC tube jacket temperature (°C),LED temperature (°C),Box temperature (°C),Sample RH (%),Span deviation,Mass concentration (μg/m³),Mass concentration (μg/m³),Mass concentration (μg/m³)
DateTimeUTC,F1_M11,P_M11,Q1_M11,Q2_M11,T1_M11,T2_M11,T3_M11,T4_M11,T5_M11,U1_M11,ZSPAN_M11,X2_M11,X0_M11,X1_M11
2023-02-18 23:00:00,,0816.4,5.00,0.00,22.0,21.6,00.0,30.8,24.0,05.2,0000.0,0001.43,0004.97,0000.86
2023-02-18 23:01:00,,0816.2,4.99,0.00,22.1,22.7,00.0,30.8,24.3,05.7,0000.0,0001.48,0004.28,0000.87
2023-02-18 23:02:00,,0816.2,4.97,0.00,22.3,22.9,00.0,30.8,24.4,05.4,0000.0,0001.46,0004.10,0000.88
2023-02-18 23:03:00,,0816.1,4.98,0.00,22.3,22.5,00.0,30.9,24.3,04.9,0000.0,0001.44,0004.01,0000.87
2023-02-18 23:04:00,,0816.2,4.97,0.00,22.3,22.0,00.0,31.0,24.2,04.8,0000.0,0001.42,0003.99,0000.87
2023-02-18 23:05:00,,0816.2,5.00,0.00,22.3,21.7,00.0,31.0,24.2,04.6,0000.0,0001.42,0004.10,0000.86
2023-02-18 23:06:00,,0816.1,5.00,0.00,22.3,21.5,00.0,31.0,24.2,04.5,0000.0,0001.45,0004.56,0000.88
2023-02-18 23:07:00,,0816.2,5.01,0.00,22.3,21.2,00.0,31.1,24.1,04.6,0000.0,0001.46,0004.66,0000.88
2023-02-18 23:08:00,,0816.2,5.00,0.00,22.3,21.1,00.0,31.1,24.0,04.5,0000.0,0001.44,0004.65,0000.89
2023-02-18 23:09:00,,0816.1,4.99,0.00,22.3,20.9,00.0,31.1,24.0,04.6,0000.0,0001.45,0004.46,0000.89
2023-02-18 23:10:00,,0816.1,5.00,0.00,22.3,20.9,00.0,31.1,24.0,04.9,0000.0,0001.41,0004.18,0000.90
2023-02-18 23:11:00,,0816.2,5.01,0.00,22.3,20.8,00.0,31.1,24.0,05.4,0000.0,0001.42,0003.85,0000.91
2023-02-18 23:12:00,,0816.3,5.00,0.00,22.2,20.8,00.0,31.1,24.0,05.4,0000.0,0001.38,0003.68,0000.91
2023-02-18 23:13:00,,0816.1,4.99,0.00,22.2,20.7,00.0,31.1,23.9,04.9,0000.0,0001.42,0003.86,0000.92
2023-02-18 23:14:00,,0816.1,5.00,0.00,22.2,20.7,00.0,31.1,23.9,04.9,0000.0,0001.48,0003.98,0000.94
2023-02-18 23:15:00,,0816.1,5.00,0.00,22.2,20.7,00.0,31.1,23.9,05.3,0000.0,0001.50,0003.93,0000.94
2023-02-18 23:16:00,,0816.2,4.98,0.00,22.2,20.6,00.0,31.1,23.9,05.2,0000.0,0001.50,0003.92,0000.94
2023-02-18 23:17:00,,0816.3,5.00,0.00,22.2,20.6,00.0,31.1,23.9,04.9,0000.0,0001.46,0003.10,0000.94
2023-02-18 23:18:00,,0816.3,5.01,0.00,22.2,20.6,00.0,31.1,23.8,05.1,0000.0,0001.41,0002.85,0000.94
2023-02-18 23:19:00,,0816.3,5.00,0.00,22.1,20.6,00.0,31.1,23.8,05.1,0000.0,0001.43,0002.85,0000.94
2023-02-18 23:20:00,,0816.3,5.00,0.00,22.1,20.5,00.0,31.1,23.8,05.2,0000.0,0001.43,0002.88,0000.94
2023-02-18 23:21:00,,0816.1,5.00,0.00,22.1,20.5,00.0,31.1,23.8,05.4,0000.0,0001.49,0003.04,0000.94
2023-02-18 23:22:00,,0816.3,5.01,0.00,22.1,20.5,00.0,31.0,23.8,05.2,0000.0,0001.51,0003.08,0000.95
2023-02-18 23:23:00,,0816.3,5.00,0.00,22.1,20.5,00.0,31.0,23.8,04.8,0000.0,0001.54,0002.99,0000.96
2023-02-18 23:24:00,,0816.3,5.00,0.00,22.1,20.5,00.0,31.0,23.8,05.0,0000.0,0001.54,0002.93,0000.95
2023-02-18 23:25:00,,0816.4,5.00,0.00,22.0,20.5,00.0,31.0,23.8,04.8,0000.0,0001.51,0002.81,0000.95
2023-02-18 23:26:00,,0816.3,4.99,0.00,22.0,20.4,00.0,31.0,23.7,05.2,0000.0,0001.46,0002.68,0000.94
2023-02-18 23:27:00,,0816.3,5.00,0.00,22.0,20.4,00.0,31.0,23.7,05.1,0000.0,0001.47,0002.62,0000.95
2023-02-18 23:28:00,,0816.3,5.00,0.00,22.0,20.4,00.0,31.0,23.7,05.4,0000.0,0001.49,0002.74,0000.97
2023-02-18 23:29:00,,0816.3,5.00,0.00,22.0,20.4,00.0,31.0,23.7,05.2,0000.0,0001.56,0002.93,0000.98
2023-02-18 23:30:00,,0816.3,5.00,0.00,22.0,20.4,00.0,31.0,23.7,05.2,0000.0,0001.59,0002.99,0001.00
2023-02-18 23:31:00,,0816.3,4.99,0.00,22.0,20.3,00.0,31.0,23.7,05.1,0000.0,0001.61,0003.04,0001.01
2023-02-18 23:32:00,,0816.3,4.99,0.00,22.0,20.3,00.0,31.0,23.7,05.2,0000.0,0001.64,0003.18,0001.02
2023-02-18 23:33:00,,0816.4,5.00,0.00,21.9,20.3,00.0,30.9,23.7,05.4,0000.0,0001.66,0003.30,0001.02
2023-02-18 23:34:00,,0816.4,4.98,0.00,21.9,20.3,00.0,30.9,23.7,05.3,0000.0,0001.63,0003.52,0001.01
2023-02-18 23:35:00,,0816.5,5.00,0.00,21.9,20.3,00.0,30.9,23.6,05.0,0000.0,0001.63,0003.58,0001.01
2023-02-18 23:36:00,,0816.4,5.00,0.00,21.9,20.3,00.0,30.9,23.6,05.1,0000.0,0001.64,0003.73,0001.02
2023-02-18 23:37:00,,0816.3,4.99,0.00,21.9,20.6,00.0,30.8,23.7,05.4,0000.0,0001.72,0004.09,0001.04
2023-02-18 23:38:00,,0816.3,4.99,0.00,22.0,21.8,00.0,30.8,24.0,05.6,0000.0,0001.69,0004.23,0001.03
2023-02-18 23:39:00,,0816.4,4.98,0.00,22.2,22.9,00.0,30.8,24.3,05.6,0000.0,0001.67,0004.24,0001.01
2023-02-18 23:40:00,,0816.4,4.98,0.00,22.3,22.9,00.0,30.9,24.4,05.4,0000.0,0001.63,0004.05,0001.01
2023-02-18 23:41:00,,0816.4,4.99,0.00,22.3,22.5,00.0,31.0,24.3,05.7,0000.0,0001.59,0004.06,0001.00
2023-02-18 23:42:00,,0816.5,4.99,0.00,22.4,22.1,00.0,31.0,24.3,05.8,0000.0,0001.57,0004.04,0001.01
2023-02-18 23:43:00,,0816.5,5.01,0.00,22.4,21.8,00.0,31.1,24.2,05.7,0000.0,0001.52,0003.95,0001.00
2023-02-18 23:44:00,,0816.4,5.01,0.00,22.4,21.5,00.0,31.1,24.2,05.4,0000.0,0001.46,0003.81,0001.00
2023-02-18 23:45:00,,0816.5,4.99,0.00,22.4,21.3,00.0,31.1,24.1,05.2,0000.0,0001.46,0003.73,0001.00
2023-02-18 23:46:00,,0816.5,5.00,0.00,22.3,21.2,00.0,31.1,24.1,05.2,0000.0,0001.45,0003.47,0001.01
2023-02-18 23:47:00,,0816.5,5.00,0.00,22.3,21.1,00.0,31.1,24.1,05.1,0000.0,0001.48,0003.39,0001.03
2023-02-18 23:48:00,,0816.4,5.00,0.00,22.3,21.0,00.0,31.2,24.1,05.5,0000.0,0001.45,0003.10,0001.03
2023-02-18 23:49:00,,0816.4,5.00,0.00,22.3,20.9,00.0,31.2,24.1,05.6,0000.0,0001.43,0002.95,0001.04
2023-02-18 23:50:00,,0816.5,5.00,0.00,22.3,20.8,00.0,31.2,24.0,05.8,0000.0,0001.45,0002.99,0001.06
2023-02-18 23:51:00,,0816.5,5.00,0.00,22.3,20.8,00.0,31.2,24.0,05.3,0000.0,0001.46,0002.96,0001.07
2023-02-18 23:52:00,,0816.5,4.99,0.00,22.3,20.7,00.0,31.2,24.0,05.6,0000.0,0001.49,0003.56,0001.08
2023-02-18 23:53:00,,0816.5,5.02,0.00,22.3,20.7,00.0,31.2,24.0,05.5,0000.0,0001.51,0004.12,0001.08
2023-02-18 23:54:00,,0816.5,5.00,0.00,22.3,20.7,00.0,31.2,24.0,05.5,0000.0,0001.52,0004.10,0001.09
2023-02-18 23:55:00,,0816.4,5.00,0.00,22.2,20.6,00.0,31.2,23.9,05.5,0000.0,0001.53,0004.12,0001.09
2023-02-18 23:56:00,,0816.4,5.02,0.00,22.2,20.6,00.0,31.1,23.9,05.6,0000.0,0001.51,0004.09,0001.10
2023-02-18 23:57:00,,0816.6,5.01,0.00,22.2,20.6,00.0,31.1,23.9,05.4,0000.0,0001.50,0004.64,0001.09
2023-02-18 23:58:00,,0816.5,5.00,0.00,22.2,20.6,00.0,31.1,23.9,05.6,0000.0,0001.54,0004.80,0001.09
2023-02-18 23:59:00,,0816.6,5.00,0.00,22.2,20.6,00.0,31.1,23.9,05.7,0000.0,0001.59,0005.07,0001.09
